Retour au catalogue

FENGYUN 1C DEB

ActifSSO
NORAD 30915·DEBRIS·🇨🇳 China

Lancé May 10, 1999 depuis Taiyuan Satellite Launch Center

Loading…

Prochains Passages (prochaines 24 heures)

TLE

FraisSource: Space-Track

Époque: Sep 14, 2026, 12:18 UTC

1 30915U 99025AZD 26257.51319016  .00002096  00000-0  87073-3 0  9996
2 30915  98.9320 344.0980 0052381  91.0882 269.6300 14.26816159  4290

Suivez FENGYUN 1C DEB en temps réel avec AllMySat

Download on the App Store